sat.trackr.live / text

‹ back to catalog

STARLINK-37687

NORAD 69368 · 2026-123R

PAYLOAD ACTIVE UNKNOWN

§ Identity

Operator
Country
US
Launch date
2026-06-04
Launch site
AFETR
Launch vehicle
Mass (kg)
RCS (m²)

Purposes: comms

External: N2YO · Heavens-Above · Gunter

§ Orbital elements

Epoch: 2026-09-19T23:52:50.138400Z

Period
93.85 min
Inclination
53.1587°
Eccentricity
0.0000762
Mean motion
15.34419889 rev/d
Perigee alt
462.1 km
Apogee alt
463.2 km
Semi-major
6,840.8 km
B*
7.5769e-4
RAAN
143.9812°
Arg perigee
51.3922°
Mean anomaly
308.7149°
Rev number
1,679

§ Raw data

STARLINK-376871 69368U 26123R   26262.99502475  .00025326  00000+0  75769-3 0  99992 69368  53.1587 143.9812 0000762  51.3922 308.7149 15.34419889 16795

JSON: /api/v1/satellites/69368 · /tle

For live sub-satellite position, see the globe view (requires WebGL).

§ Visibility from observer

Set your observer location to see the next 7 days of passes ≥ 10°. The values pass through the URL so the page stays shareable.

No JS? Fill the form by hand. The geolocation button needs JavaScript.